Weather History for Scottsdale, AZ

Change the Weather History Date:

Saturday, January 25, 2014

  Actual Average Record
Temperature  
Mean Temperature 65 °F -  
Max Temperature 73 °F 64 °F 73 °F (2000)
Min Temperature 57 °F 44 °F 37 °F (2002)
Growing Degree Days 15 (Base 50)    
Moisture  
Dew Point 26 °F    
Average Humidity 25    
Maximum Humidity 36    
Minimum Humidity 15    
Precipitation  
Precipitation 0.00 in - - ()
Sea Level Pressure  
Sea Level Pressure 30.13 in    
Wind  
Wind Speed 1 mph (WSW)    
Max Wind Speed 6 mph    
Max Gust Speed -    
Visibility 10 miles    
Events      
Averages and records for this station are not official NWS values.
T = Trace of Precipitation, MM = Missing Value Source: NWS Daily Summary

Daily Weather History Graph

Daily Weather History Graph

Search for Another Location

Airport:

Trip Planner

Search our weather history database for the weather conditions in past years. The results will help you decide how hot, cold, wet, or windy it might be!

Date:

Astronomy

Jan. 25, 2014 Rise Set
Actual Time 7:28 AM MST 5:52 PM MST
Civil Twilight 7:01 AM MST 6:18 PM MST
Nautical Twilight 6:31 AM MST 6:48 PM MST
Astronomical Twilight 6:02 AM MST 7:18 PM MST
Moon 2:05 AM MST (1/25) 12:55 PM MST (1/25)
Length of Visible Light 11h 16m
Length of Day
10h 23m
Waning Crescent, 33% of the Moon is Illuminated
Jan 25
Waning Crescent
Jan 30
New
Feb 6
First Quarter
Feb 14
Full
Feb 22
Last Quarter

Hourly Weather History & Observations

Time (MST) Temp. Dew Point Humidity Pressure Visibility Wind Dir Wind Speed Gust Speed Precip Events Conditions
12:53 AM 59.0 °F 30.9 °F 35% 30.20 in 10.0 mi Calm Calm - N/A   Mostly Cloudy
1:53 AM 59.0 °F 30.9 °F 35% 30.19 in 10.0 mi WNW 3.5 mph - N/A   Overcast
2:53 AM 57.9 °F 30.9 °F 36% 30.20 in 10.0 mi Calm Calm - N/A   Overcast
3:53 AM 59.0 °F 27.0 °F 29% 30.18 in 10.0 mi Calm Calm - N/A   Overcast
4:53 AM 57.0 °F 30.0 °F 36% 30.17 in 10.0 mi SSW 3.5 mph - N/A   Overcast
5:53 AM 59.0 °F 26.1 °F 28% 30.17 in 10.0 mi WNW 4.6 mph - N/A   Overcast
6:53 AM 57.9 °F 27.0 °F 31% 30.18 in 10.0 mi Calm Calm - N/A   Overcast
7:53 AM 57.0 °F 28.9 °F 34% 30.19 in 10.0 mi Calm Calm - N/A   Mostly Cloudy
8:53 AM 59.0 °F 28.9 °F 32% 30.19 in 10.0 mi Calm Calm - N/A   Clear
9:53 AM 64.0 °F 24.1 °F 22% 30.20 in 10.0 mi Calm Calm - N/A   Clear
10:53 AM 66.9 °F 23.0 °F 19% 30.19 in 10.0 mi Calm Calm - N/A   Clear
11:53 AM 69.1 °F 21.0 °F 16% 30.17 in 10.0 mi Variable 3.5 mph - N/A   Clear
12:53 PM 71.1 °F 21.0 °F 15% 30.13 in 10.0 mi SW 5.8 mph - N/A   Clear
1:53 PM 71.1 °F 21.0 °F 15% 30.10 in 10.0 mi SSE 3.5 mph - N/A   Clear
2:53 PM 73.0 °F 21.9 °F 15% 30.08 in 10.0 mi Calm Calm - N/A   Clear
3:53 PM 73.0 °F 21.9 °F 15% 30.07 in 10.0 mi Calm Calm - N/A   Overcast
4:53 PM 72.0 °F 21.9 °F 15% 30.06 in 10.0 mi SW 4.6 mph - N/A   Overcast
5:53 PM 70.0 °F 23.0 °F 17% 30.05 in 10.0 mi SW 3.5 mph - N/A   Clear
6:53 PM 66.9 °F 24.1 °F 20% 30.07 in 10.0 mi West 3.5 mph - N/A   Clear
7:53 PM 64.9 °F 25.0 °F 22% 30.08 in 10.0 mi Calm Calm - N/A   Clear
8:53 PM 64.0 °F 26.1 °F 24% 30.07 in 10.0 mi Calm Calm - N/A   Overcast
9:53 PM 62.1 °F 27.0 °F 26% 30.06 in 10.0 mi NNE 3.5 mph - N/A   Scattered Clouds
10:53 PM 60.1 °F 28.0 °F 30% 30.06 in 10.0 mi Calm Calm - N/A   Clear
11:53 PM 57.9 °F 28.9 °F 33% 30.05 in 10.0 mi Calm Calm - N/A   Clear